Location: The Saddle
(36.8333°N, 80.3417°W)
Time: 21:51:20
(UTC-05:00)

Transit 2A - All Passes

Search period start: 30 November 2023 00:00
Search period end: 10 December 2023 00:00
Orbit: 600 x 953 km, 66.7° (Epoch: 29 November)

Date Brightness Start Highest point End Pass type
(mag) Time Alt. Az. Time Alt. Az. Time Alt. Az.
30 Nov - 01:31:05 10° N 01:34:59 31° ENE 01:38:57 10° ESE night (unlit)
30 Nov - 03:14:33 10° WNW 03:17:50 21° WSW 03:21:12 10° SSW night (unlit)
30 Nov - 16:07:26 10° S 16:12:38 49° ESE 16:17:20 10° NE daylight
30 Nov - 17:52:10 10° W 17:55:53 20° NW 17:59:24 10° N visible
01 Dec - 00:56:39 10° N 00:59:56 20° NE 01:03:15 10° ESE night (unlit)
01 Dec - 02:39:05 10° NW 02:43:02 34° WSW 02:47:07 10° S night (unlit)
01 Dec - 15:33:04 10° S 15:37:47 32° ESE 15:42:07 10° NE daylight
01 Dec - 17:16:19 10° WSW 17:20:49 29° NW 17:25:00 10° N daylight
02 Dec - 00:22:35 10° NNE 00:24:48 14° NE 00:27:01 10° E night (unlit)
02 Dec - 02:03:55 10° NW 02:08:11 57° WSW 02:12:37 10° SSE night (unlit)
02 Dec - 14:59:06 10° SSE 15:02:58 20° ESE 15:06:35 10° ENE daylight
02 Dec - 16:40:49 10° SW 16:45:49 43° WNW 16:50:24 10° NNE daylight
03 Dec - 01:28:57 10° NNW 01:33:19 85° ENE 01:37:50 10° SSE night (unlit)
03 Dec - 14:25:57 10° SE 14:28:12 13° ESE 14:30:22 10° E daylight
03 Dec - 16:05:35 10° SW 16:10:52 68° WNW 16:15:39 10° NNE daylight
04 Dec - 00:54:08 10° NNW 00:58:22 51° ENE 01:02:45 10° SE night (unlit)
04 Dec - 02:39:04 10° W 02:41:00 13° WSW 02:42:57 10° SW night (unlit)
04 Dec - 15:30:37 10° SSW 15:35:57 78° ESE 15:40:45 10° NNE daylight
04 Dec - 17:17:07 10° WNW 17:19:28 13° NW 17:21:44 10° NNW daylight
05 Dec - 00:19:29 10° N 00:23:23 31° ENE 00:27:24 10° ESE night (unlit)
05 Dec - 02:02:56 10° WNW 02:06:14 21° WSW 02:09:38 10° SSW night (unlit)
05 Dec - 14:55:56 10° S 15:01:04 49° ESE 15:05:44 10° NE daylight
05 Dec - 16:40:41 10° W 16:44:19 19° NW 16:47:45 10° N daylight
05 Dec - 23:45:01 10° N 23:48:20 21° NE 23:51:41 10° ESE night (unlit)
06 Dec - 01:27:28 10° NW 01:31:25 34° WSW 01:35:33 10° S night (unlit)
06 Dec - 14:21:33 10° S 14:26:12 31° ESE 14:30:30 10° NE daylight
06 Dec - 16:04:49 10° WSW 16:09:15 28° NW 16:13:22 10° N daylight
06 Dec - 23:10:57 10° NNE 23:13:12 14° NE 23:15:28 10° E night (unlit)
07 Dec - 00:52:18 10° NW 00:56:35 57° WSW 01:01:03 10° SSE night (unlit)
07 Dec - 13:47:36 10° SSE 13:51:23 20° ESE 13:54:56 10° ENE daylight
07 Dec - 15:29:18 10° SW 15:34:14 43° WNW 15:38:46 10° NNE daylight
08 Dec - 00:17:19 10° NNW 00:21:41 85° ENE 00:26:15 10° SSE night (unlit)
08 Dec - 13:14:29 10° SE 13:16:37 13° ESE 13:18:41 10° E daylight
08 Dec - 14:54:04 10° SW 14:59:16 67° WNW 15:04:01 10° NNE daylight
08 Dec - 23:42:30 10° NNW 23:46:45 51° ENE 23:51:10 10° SE night (unlit)
09 Dec - 01:27:24 10° W 01:29:23 13° WSW 01:31:24 10° SW night (unlit)
09 Dec - 14:19:06 10° SSW 14:24:21 78° ESE 14:29:07 10° NNE daylight
09 Dec - 16:05:37 10° WNW 16:07:51 13° NW 16:10:02 10° NNW daylight
09 Dec - 23:07:50 10° N 23:11:45 32° ENE 23:15:49 10° ESE night (unlit)
